SWR2742 SAWH-SAEZ

Flight info

Callsign SWR2742
Flight time N/A
Altitude 39000
Route USU2A GRA UT662 DIL UZ117 GBE
Aircraft B772/H-SDE2E3FGHIJ5LORVWXY/LB1D1

Departure

Time 2026-05-08 19:21
Airport Ushuaia - Malvinas Argentinas International Airport (SAWH)

Arrival

Time N/A
Airport Ezeiza International Airport - Ministro Pistarini (SAEZ)
Time Latitude Longitude Altitude Speed Heading
2026-05-08 19:04 -54.84014 -68.31275 115 ft 0 kts 33°
2026-05-08 19:05 -54.84009 -68.31192 115 ft 0 kts 341°
2026-05-08 19:15 -54.84018 -68.31187 116 ft 2 kts 341°
2026-05-08 19:15 -54.84035 -68.31177 116 ft 3 kts 336°
2026-05-08 19:15 -54.84052 -68.31160 116 ft 3 kts 326°
2026-05-08 19:15 -54.84067 -68.31141 116 ft 3 kts 317°
2026-05-08 19:16 -54.84075 -68.31127 116 ft 3 kts 311°
2026-05-08 19:16 -54.84081 -68.31115 116 ft 3 kts 307°
2026-05-08 19:16 -54.84092 -68.31085 116 ft 3 kts 297°
2026-05-08 19:16 -54.84100 -68.31053 116 ft 3 kts 288°
2026-05-08 19:17 -54.84105 -68.31018 116 ft 3 kts 279°
2026-05-08 19:17 -54.84106 -68.30982 116 ft 3 kts 270°
2026-05-08 19:17 -54.84105 -68.30947 116 ft 3 kts 263°
2026-05-08 19:17 -54.84102 -68.30917 116 ft 0 kts 257°
2026-05-08 19:18 -54.84103 -68.30958 116 ft 4 kts 272°
2026-05-08 19:18 -54.84089 -68.31080 116 ft 14 kts 276°
2026-05-08 19:18 -54.84092 -68.31230 116 ft 10 kts 264°
2026-05-08 19:18 -54.84123 -68.31334 116 ft 12 kts 204°
2026-05-08 19:19 -54.84229 -68.31340 116 ft 18 kts 176°
2026-05-08 19:19 -54.84343 -68.31327 116 ft 14 kts 176°
2026-05-08 19:19 -54.84403 -68.31268 116 ft 5 kts 96°
2026-05-08 19:19 -54.84402 -68.31246 116 ft 0 kts 81°
2026-05-08 19:20 -54.84384 -68.30955 116 ft 57 kts 86°
2026-05-08 19:20 -54.84374 -68.30676 116 ft 80 kts 86°
2026-05-08 19:20 -54.84271 -68.28029 118 ft 180 kts 86°
2026-05-08 19:20 -54.84212 -68.25651 395 ft 205 kts 90°
2026-05-08 19:21 -54.84352 -68.23168 1008 ft 214 kts 98°
2026-05-08 19:21 -54.84692 -68.20593 1755 ft 219 kts 104°
2026-05-08 19:21 -54.85074 -68.17991 2328 ft 228 kts 104°
2026-05-08 19:21 -54.85527 -68.15234 2681 ft 246 kts 107°
2026-05-08 19:22 -54.86064 -68.12336 3246 ft 257 kts 108°
2026-05-08 19:22 -54.86642 -68.09414 3947 ft 261 kts 109°
2026-05-08 19:22 -54.87239 -68.06461 4810 ft 260 kts 109°
2026-05-08 19:22 -54.87836 -68.03465 5464 ft 266 kts 109°
2026-05-08 19:23 -54.88444 -68.00395 6132 ft 271 kts 109°
2026-05-08 19:23 -54.89061 -67.97272 6854 ft 274 kts 109°
2026-05-08 19:23 -54.89497 -67.94040 7494 ft 278 kts 95°
2026-05-08 19:23 -54.89170 -67.90737 8128 ft 281 kts 69°
2026-05-08 19:24 -54.88070 -67.87956 8820 ft 282 kts 47°
2026-05-08 19:24 -54.86571 -67.85741 9481 ft 285 kts 37°
2026-05-08 19:24 -54.84951 -67.83737 10224 ft 283 kts 35°
2026-05-08 19:24 -54.83309 -67.81877 10937 ft 287 kts 33°
2026-05-08 19:25 -54.81556 -67.79992 11350 ft 303 kts 32°
2026-05-08 19:25 -54.79713 -67.78110 11727 ft 320 kts 29°
2026-05-08 19:25 -54.77572 -67.76684 12079 ft 341 kts 17°
2026-05-08 19:25 -54.75159 -67.75976 12429 ft 361 kts
2026-05-08 19:26 -54.72596 -67.75660 12878 ft 377 kts
2026-05-08 19:26 -54.69935 -67.75547 13426 ft 390 kts
2026-05-08 19:26 -54.67181 -67.75557 14062 ft 399 kts
2026-05-08 19:26 -54.64388 -67.75592 14845 ft 403 kts
2026-05-08 19:27 -54.61549 -67.75603 15496 ft 411 kts
2026-05-08 19:27 -54.58663 -67.75595 16151 ft 418 kts
2026-05-08 19:27 -54.55739 -67.75573 16868 ft 422 kts
2026-05-08 19:27 -54.52778 -67.75544 17528 ft 428 kts
2026-05-08 19:28 -54.49787 -67.75510 18200 ft 433 kts
2026-05-08 19:28 -54.46781 -67.75474 19028 ft 432 kts
2026-05-08 19:28 -54.43765 -67.75436 19711 ft 435 kts
2026-05-08 19:28 -54.40717 -67.75396 20330 ft 440 kts
2026-05-08 19:29 -54.37652 -67.75357 21006 ft 442 kts
2026-05-08 19:29 -54.34541 -67.75317 21367 ft 454 kts 358°
2026-05-08 19:29 -54.31327 -67.75274 21486 ft 471 kts 358°
2026-05-08 19:29 -54.27993 -67.75231 21686 ft 485 kts 359°
2026-05-08 19:30 -54.24603 -67.75187 22212 ft 490 kts 358°
2026-05-08 19:30 -54.21181 -67.75143 22731 ft 495 kts 358°
2026-05-08 19:30 -54.17720 -67.75098 23205 ft 501 kts 358°
2026-05-08 19:30 -54.14211 -67.75053 23648 ft 507 kts 358°
2026-05-08 19:31 -54.10650 -67.75007 24028 ft 515 kts 358°
2026-05-08 19:31 -54.07052 -67.74960 24499 ft 520 kts 360°
2026-05-08 19:31 -54.03433 -67.74913 25008 ft 523 kts 359°
2026-05-08 19:31 -53.99776 -67.74866 25525 ft 526 kts 359°
2026-05-08 19:32 -53.96099 -67.74819 26028 ft 529 kts 359°
2026-05-08 19:32 -53.92453 -67.74773 26489 ft 532 kts 359°
2026-05-08 19:32 -53.88747 -67.74726 27001 ft 534 kts 359°
2026-05-08 19:32 -53.85005 -67.74676 27473 ft 536 kts 359°
2026-05-08 19:33 -53.81267 -67.74236 27890 ft 541 kts
2026-05-08 19:33 -53.77579 -67.72978 28347 ft 543 kts 15°
2026-05-08 19:33 -53.73990 -67.70997 28774 ft 545 kts 21°
2026-05-08 19:33 -53.70481 -67.68418 29168 ft 547 kts 26°
2026-05-08 19:34 -53.67097 -67.65452 29538 ft 549 kts 30°
2026-05-08 19:34 -53.63798 -67.62324 29927 ft 550 kts 31°
2026-05-08 19:34 -53.60474 -67.59141 30418 ft 549 kts 30°
2026-05-08 19:34 -53.57201 -67.56076 30937 ft 546 kts 29°
2026-05-08 19:35 -53.53816 -67.52967 31474 ft 543 kts 28°
2026-05-08 19:35 -53.50502 -67.49954 31991 ft 540 kts 28°
2026-05-08 19:35 -53.47205 -67.46968 32471 ft 537 kts 28°
2026-05-08 19:35 -53.43931 -67.43961 32935 ft 535 kts 28°
2026-05-08 19:36 -53.40681 -67.40981 33387 ft 532 kts 27°
2026-05-08 19:36 -53.37420 -67.38016 33812 ft 529 kts 27°
2026-05-08 19:36 -53.34188 -67.35092 34220 ft 527 kts 27°
2026-05-08 19:36 -53.30965 -67.32186 34605 ft 525 kts 27°
2026-05-08 19:37 -53.27754 -67.29298 34961 ft 523 kts 27°
2026-05-08 19:37 -53.24599 -67.26467 35304 ft 521 kts 26°
2026-05-08 19:37 -53.21395 -67.23596 35631 ft 520 kts 26°
2026-05-08 19:37 -53.18207 -67.20745 35920 ft 519 kts 26°
2026-05-08 19:38 -53.15027 -67.17905 36281 ft 515 kts 26°
2026-05-08 19:38 -53.11892 -67.15108 36849 ft 508 kts 26°
2026-05-08 19:38 -53.09838 -67.13252 37098 ft 506 kts 26°
2026-05-08 19:38 -53.05693 -67.09542 37366 ft 506 kts 26°
2026-05-08 19:39 -53.03636 -67.07719 37494 ft 506 kts 26°
2026-05-08 19:39 -53.00526 -67.04973 37711 ft 506 kts 26°
2026-05-08 19:39 -52.97422 -67.02238 37915 ft 506 kts 26°
2026-05-08 19:39 -52.94660 -66.99808 38079 ft 506 kts 26°
2026-05-08 19:40 -52.91550 -66.97076 38184 ft 508 kts 26°
2026-05-08 19:40 -52.88415 -66.94324 38318 ft 509 kts 26°
2026-05-08 19:40 -52.85303 -66.91593 38490 ft 509 kts 26°
2026-05-08 19:40 -52.82169 -66.88841 38649 ft 509 kts 26°
2026-05-08 19:41 -52.79039 -66.86092 38729 ft 510 kts 26°
2026-05-08 19:41 -52.72743 -66.80582 38873 ft 514 kts 26°
2026-05-08 19:41 -52.69586 -66.77828 39170 ft 509 kts 26°
2026-05-08 19:42 -52.66464 -66.75108 39351 ft 508 kts 26°
2026-05-08 19:42 -52.60220 -66.69682 39440 ft 511 kts 26°
2026-05-08 19:43 -52.53906 -66.64213 39503 ft 515 kts 26°
2026-05-08 19:43 -52.47580 -66.58663 39554 ft 516 kts 26°
2026-05-08 19:44 -52.41208 -66.53122 39555 ft 519 kts 26°
2026-05-08 19:44 -52.34795 -66.47589 39555 ft 521 kts 26°
2026-05-08 19:45 -52.28382 -66.42078 39554 ft 519 kts 26°
2026-05-08 19:45 -52.22009 -66.36622 39555 ft 515 kts 26°
2026-05-08 19:46 -52.15685 -66.31225 39555 ft 512 kts 26°
2026-05-08 19:46 -52.06188 -66.23139 39554 ft 515 kts 26°
2026-05-08 19:47 -51.99874 -66.17754 39555 ft 516 kts 25°
2026-05-08 19:47 -51.93512 -66.12402 39555 ft 515 kts 25°
2026-05-08 19:48 -51.87132 -66.07054 39555 ft 518 kts 25°
2026-05-08 19:48 -51.80730 -66.01699 39555 ft 515 kts 25°
2026-05-08 19:49 -51.74252 -65.96954 39555 ft 510 kts 19°
2026-05-08 19:49 -51.67562 -65.93045 39555 ft 512 kts 17°
2026-05-08 19:50 -51.60815 -65.89214 39555 ft 516 kts 17°
2026-05-08 19:50 -51.54061 -65.85264 39556 ft 518 kts 18°
2026-05-08 19:51 -51.47295 -65.81272 39554 ft 516 kts 18°
2026-05-08 19:51 -51.40571 -65.77242 39554 ft 515 kts 18°
2026-05-08 19:52 -51.33861 -65.73241 39555 ft 513 kts 18°
2026-05-08 19:52 -51.27188 -65.69290 39555 ft 511 kts 18°
2026-05-08 19:53 -51.20508 -65.65353 39555 ft 514 kts 18°
2026-05-08 19:53 -51.13833 -65.61432 39556 ft 514 kts 18°
2026-05-08 19:54 -51.07127 -65.57506 39555 ft 512 kts 18°
2026-05-08 19:54 -51.00427 -65.53597 39555 ft 515 kts 18°
2026-05-08 19:55 -50.93656 -65.49658 39555 ft 516 kts 18°
2026-05-08 19:55 -50.86985 -65.45788 39555 ft 511 kts 18°
2026-05-08 19:56 -50.80337 -65.41944 39555 ft 508 kts 18°
2026-05-08 19:56 -50.73687 -65.38111 39556 ft 511 kts 18°
2026-05-08 19:57 -50.66989 -65.34262 39555 ft 513 kts 18°
2026-05-08 19:57 -50.60267 -65.30410 39554 ft 515 kts 18°
2026-05-08 19:58 -50.53511 -65.26551 39555 ft 518 kts 18°
2026-05-08 19:58 -50.46712 -65.22680 39556 ft 519 kts 18°
2026-05-08 19:59 -50.39928 -65.18828 39555 ft 518 kts 18°
2026-05-08 19:59 -50.33149 -65.14991 39555 ft 518 kts 17°
2026-05-08 20:00 -50.26403 -65.11185 39555 ft 519 kts 17°
2026-05-08 20:00 -50.19606 -65.07361 39555 ft 518 kts 17°
2026-05-08 20:01 -50.12828 -65.03559 39555 ft 518 kts 17°
2026-05-08 20:01 -50.06028 -64.99757 39555 ft 518 kts 17°
2026-05-08 20:02 -49.99234 -64.95969 39556 ft 519 kts 17°
2026-05-08 20:02 -49.92455 -64.92201 39555 ft 516 kts 17°
2026-05-08 20:03 -49.85696 -64.88455 39555 ft 517 kts 17°
2026-05-08 20:03 -49.78945 -64.84725 39555 ft 518 kts 17°
2026-05-08 20:04 -49.72142 -64.80978 39555 ft 518 kts 17°
2026-05-08 20:04 -49.65357 -64.77251 39555 ft 517 kts 17°
2026-05-08 20:05 -49.58575 -64.73537 39555 ft 518 kts 17°
2026-05-08 20:05 -49.51773 -64.69823 39557 ft 518 kts 17°
2026-05-08 20:06 -49.44999 -64.66135 39555 ft 515 kts 17°
2026-05-08 20:06 -49.38251 -64.62472 39555 ft 515 kts 17°
2026-05-08 20:07 -49.31480 -64.58808 39555 ft 516 kts 17°
2026-05-08 20:07 -49.24705 -64.55152 39555 ft 516 kts 17°
2026-05-08 20:08 -49.17932 -64.51507 39555 ft 516 kts 17°
2026-05-08 20:08 -49.11160 -64.47874 39555 ft 516 kts 17°
2026-05-08 20:09 -49.04390 -64.44252 39555 ft 516 kts 17°
2026-05-08 20:09 -48.97599 -64.40629 39555 ft 517 kts 17°
2026-05-08 20:10 -48.90862 -64.37046 39555 ft 517 kts 17°
2026-05-08 20:10 -48.84062 -64.33439 39555 ft 517 kts 17°
2026-05-08 20:11 -48.77282 -64.29854 39555 ft 516 kts 17°
2026-05-08 20:11 -48.76135 -64.29248 39555 ft 516 kts 17°
2026-05-08 20:12 -48.69992 -64.26010 39168 ft 515 kts 19°
2026-05-08 20:12 -48.66639 -64.24246 39058 ft 503 kts 19°
2026-05-08 20:12 -48.63355 -64.22520 39015 ft 495 kts 19°
2026-05-08 20:13 -48.56947 -64.19157 39000 ft 484 kts 19°
2026-05-08 20:13 -48.52659 -64.16891 39000 ft 484 kts 19°
2026-05-08 20:14 -48.46492 -64.13671 39000 ft 486 kts 19°
2026-05-08 20:14 -48.40091 -64.10348 39000 ft 486 kts 19°
2026-05-08 20:15 -48.33700 -64.07039 39000 ft 486 kts 19°
2026-05-08 20:15 -48.27299 -64.03729 39000 ft 486 kts 19°
2026-05-08 20:16 -48.20907 -64.00437 39000 ft 486 kts 19°
2026-05-08 20:16 -48.14508 -63.97155 39000 ft 486 kts 19°
2026-05-08 20:17 -48.08107 -63.93882 39000 ft 486 kts 19°
2026-05-08 20:17 -48.01709 -63.90620 39000 ft 486 kts 19°
2026-05-08 20:18 -47.95310 -63.87367 39000 ft 486 kts 19°
2026-05-08 20:18 -47.88916 -63.84080 39000 ft 486 kts 19°
2026-05-08 20:19 -47.82528 -63.80814 39000 ft 485 kts 19°
2026-05-08 20:19 -47.76132 -63.77564 39000 ft 485 kts 19°
2026-05-08 20:20 -47.69776 -63.74347 39000 ft 485 kts 19°
2026-05-08 20:20 -47.63378 -63.71120 39000 ft 485 kts 19°
2026-05-08 20:21 -47.56984 -63.67903 39000 ft 485 kts 19°
2026-05-08 20:21 -47.50592 -63.64696 39000 ft 485 kts 19°
2026-05-08 20:22 -47.44191 -63.61493 39000 ft 485 kts 19°
2026-05-08 20:22 -47.39250 -63.59026 39000 ft 485 kts 19°
2026-05-08 20:23 -47.31776 -63.55303 39000 ft 485 kts 19°
2026-05-08 20:23 -47.25382 -63.52127 39000 ft 485 kts 19°
2026-05-08 20:24 -47.18991 -63.48961 39000 ft 485 kts 18°
2026-05-08 20:24 -47.13666 -63.46329 39000 ft 485 kts 18°
2026-05-08 20:25 -47.07272 -63.43176 39000 ft 485 kts 18°
2026-05-08 20:25 -47.00879 -63.40032 39000 ft 485 kts 18°
2026-05-08 20:26 -46.94483 -63.36894 39000 ft 485 kts 18°
2026-05-08 20:26 -46.88091 -63.33766 39000 ft 485 kts 18°
2026-05-08 20:27 -46.81688 -63.30640 39000 ft 485 kts 18°
2026-05-08 20:27 -46.75293 -63.27527 39000 ft 485 kts 18°
2026-05-08 20:28 -46.68934 -63.24438 39000 ft 484 kts 18°
2026-05-08 20:28 -46.62535 -63.21338 39000 ft 484 kts 18°
2026-05-08 20:29 -46.56141 -63.18247 39000 ft 484 kts 18°
2026-05-08 20:29 -46.49741 -63.15162 39000 ft 484 kts 18°
2026-05-08 20:30 -46.43349 -63.12088 39000 ft 484 kts 18°
2026-05-08 20:30 -46.36947 -63.09017 39000 ft 484 kts 18°
2026-05-08 20:31 -46.30556 -63.05959 39000 ft 484 kts 18°
2026-05-08 20:31 -46.24157 -63.02904 39000 ft 484 kts 18°
2026-05-08 20:32 -46.17775 -62.99865 39000 ft 484 kts 18°
2026-05-08 20:32 -46.11368 -62.96822 39000 ft 484 kts 18°
2026-05-08 20:33 -46.04964 -62.93787 39000 ft 484 kts 18°
2026-05-08 20:33 -45.98569 -62.90765 39000 ft 484 kts 18°
2026-05-08 20:34 -45.92206 -62.87764 39000 ft 484 kts 18°
2026-05-08 20:35 -45.82602 -62.83249 39000 ft 484 kts 18°
2026-05-08 20:35 -45.76209 -62.80252 39000 ft 484 kts 18°
2026-05-08 20:36 -45.69837 -62.77273 39000 ft 484 kts 18°
2026-05-08 20:36 -45.63415 -62.74277 39000 ft 483 kts 18°
2026-05-08 20:37 -45.57020 -62.71301 39000 ft 483 kts 18°
2026-05-08 20:37 -45.50619 -62.68330 39000 ft 483 kts 18°
2026-05-08 20:38 -45.44248 -62.65379 39000 ft 483 kts 18°
2026-05-08 20:38 -45.37833 -62.62415 39000 ft 483 kts 18°
2026-05-08 20:39 -45.31436 -62.59457 39000 ft 483 kts 18°
2026-05-08 20:39 -45.25083 -62.56522 39000 ft 483 kts 18°
2026-05-08 20:40 -45.18688 -62.53594 39000 ft 483 kts 18°
2026-05-08 20:40 -45.12285 -62.50672 39000 ft 483 kts 18°
2026-05-08 20:41 -45.05883 -62.47754 39000 ft 483 kts 18°
2026-05-08 20:41 -44.99474 -62.44839 39000 ft 483 kts 18°
2026-05-08 20:42 -44.93111 -62.41957 39000 ft 483 kts 18°
2026-05-08 20:42 -44.86710 -62.39067 39000 ft 483 kts 18°
2026-05-08 20:43 -44.80307 -62.36184 39000 ft 483 kts 18°
2026-05-08 20:43 -44.73900 -62.33305 39000 ft 483 kts 18°
2026-05-08 20:44 -44.67507 -62.30426 39000 ft 483 kts 18°
2026-05-08 20:44 -44.61113 -62.27531 39000 ft 483 kts 18°
2026-05-08 20:45 -44.54715 -62.24657 39000 ft 482 kts 18°
2026-05-08 20:45 -44.48311 -62.21791 39000 ft 482 kts 18°
2026-05-08 20:46 -44.41910 -62.18936 39000 ft 482 kts 18°
2026-05-08 20:46 -44.35549 -62.16105 39000 ft 482 kts 18°
2026-05-08 20:47 -44.29148 -62.13264 39000 ft 482 kts 18°
2026-05-08 20:47 -44.22742 -62.10427 39000 ft 482 kts 18°
2026-05-08 20:48 -44.16342 -62.07599 39000 ft 482 kts 18°
2026-05-08 20:48 -44.09940 -62.04776 39000 ft 482 kts 17°
2026-05-08 20:49 -44.03569 -62.01974 39000 ft 482 kts 17°
2026-05-08 20:49 -43.97153 -61.99158 39000 ft 482 kts 17°
2026-05-08 20:50 -43.90788 -61.96371 39000 ft 482 kts 17°
2026-05-08 20:50 -43.84404 -61.93583 39013 ft 481 kts 18°
2026-05-08 20:51 -43.78131 -61.90846 39049 ft 485 kts 18°
2026-05-08 20:51 -43.71682 -61.88042 39057 ft 485 kts 18°
2026-05-08 20:52 -43.65238 -61.85246 39052 ft 485 kts 18°
2026-05-08 20:52 -43.58793 -61.82456 39052 ft 485 kts 18°
2026-05-08 20:53 -43.52356 -61.79674 39049 ft 484 kts 18°
2026-05-08 20:53 -43.45967 -61.76920 39048 ft 484 kts 18°
2026-05-08 20:54 -43.39529 -61.74151 39045 ft 485 kts 18°
2026-05-08 20:54 -43.33090 -61.71388 39045 ft 484 kts 18°
2026-05-08 20:55 -43.26666 -61.68627 39044 ft 482 kts 18°
2026-05-08 20:55 -43.20263 -61.65881 39043 ft 482 kts 18°
2026-05-08 20:56 -43.13882 -61.63166 39041 ft 483 kts 18°
2026-05-08 20:56 -43.07458 -61.60440 39041 ft 483 kts 18°
2026-05-08 20:57 -43.01035 -61.57718 39039 ft 483 kts 18°
2026-05-08 20:57 -42.94606 -61.54999 39038 ft 482 kts 18°
2026-05-08 20:58 -42.88220 -61.52310 39038 ft 484 kts 18°
2026-05-08 20:58 -42.81792 -61.49609 39034 ft 483 kts 18°
2026-05-08 20:59 -42.75365 -61.46916 39034 ft 483 kts 18°
2026-05-08 20:59 -42.68942 -61.44230 39031 ft 483 kts 17°
2026-05-08 21:00 -42.62508 -61.41532 39031 ft 483 kts 18°
2026-05-08 21:00 -42.56078 -61.38825 39031 ft 485 kts 18°
2026-05-08 21:01 -42.49638 -61.36132 38915 ft 490 kts 17°
2026-05-08 21:01 -42.43079 -61.33400 38932 ft 492 kts 18°
2026-05-08 21:02 -42.36549 -61.30688 38914 ft 486 kts 18°
2026-05-08 21:02 -42.30154 -61.28038 38903 ft 481 kts 18°
2026-05-08 21:03 -42.23795 -61.25408 38902 ft 481 kts 18°
2026-05-08 21:03 -42.17347 -61.22748 38899 ft 483 kts 18°
2026-05-08 21:04 -42.10918 -61.20102 38892 ft 482 kts 18°
2026-05-08 21:04 -42.04519 -61.17473 38893 ft 482 kts 18°
2026-05-08 21:05 -41.98094 -61.14839 38883 ft 482 kts 17°
2026-05-08 21:05 -41.91730 -61.12235 38878 ft 481 kts 17°
2026-05-08 21:06 -41.85320 -61.09618 38874 ft 481 kts 17°
2026-05-08 21:06 -41.78915 -61.07009 38867 ft 481 kts 17°
2026-05-08 21:07 -41.72506 -61.04404 38867 ft 481 kts 17°
2026-05-08 21:07 -41.66096 -61.01803 38867 ft 481 kts 17°
2026-05-08 21:08 -41.59676 -60.99204 38864 ft 481 kts 17°
2026-05-08 21:08 -41.53299 -60.96628 38867 ft 481 kts 17°
2026-05-08 21:09 -41.46889 -60.94044 38867 ft 481 kts 17°
2026-05-08 21:09 -41.40482 -60.91466 38993 ft 479 kts 17°
2026-05-08 21:10 -41.34097 -60.88902 39000 ft 480 kts 17°
2026-05-08 21:10 -41.27920 -60.86427 39000 ft 480 kts 17°
2026-05-08 21:11 -41.21518 -60.83867 39000 ft 480 kts 17°
2026-05-08 21:11 -41.15121 -60.81314 39000 ft 479 kts 17°
2026-05-08 21:12 -41.08763 -60.78781 39000 ft 479 kts 17°
2026-05-08 21:12 -41.02376 -60.76243 39000 ft 479 kts 17°
2026-05-08 21:13 -40.97044 -60.74127 39000 ft 479 kts 17°
2026-05-08 21:13 -40.90660 -60.71599 39000 ft 479 kts 17°
2026-05-08 21:14 -40.83214 -60.68657 39000 ft 479 kts 17°
2026-05-08 21:14 -40.77870 -60.66540 39000 ft 479 kts 17°
2026-05-08 21:15 -40.71476 -60.64016 39000 ft 479 kts 17°
2026-05-08 21:15 -40.65121 -60.61524 39000 ft 479 kts 17°
2026-05-08 21:16 -40.58733 -60.59025 39000 ft 479 kts 17°
2026-05-08 21:16 -40.52334 -60.56525 39000 ft 479 kts 17°
2026-05-08 21:17 -40.45946 -60.53975 39000 ft 479 kts 18°
2026-05-08 21:17 -40.39651 -60.51288 39000 ft 479 kts 18°
2026-05-08 21:18 -40.33315 -60.48593 39000 ft 479 kts 18°
2026-05-08 21:18 -40.26956 -60.45906 39000 ft 479 kts 18°
2026-05-08 21:19 -40.20620 -60.43238 39000 ft 479 kts 18°
2026-05-08 21:19 -40.14280 -60.40565 39000 ft 479 kts 18°
2026-05-08 21:20 -40.07975 -60.37894 39000 ft 479 kts 18°
2026-05-08 21:20 -40.01633 -60.35224 39000 ft 478 kts 18°
2026-05-08 21:21 -39.95291 -60.32565 39000 ft 478 kts 18°
2026-05-08 21:21 -39.88954 -60.29914 39000 ft 478 kts 18°
2026-05-08 21:22 -39.82598 -60.27261 39000 ft 478 kts 18°
2026-05-08 21:22 -39.76703 -60.24806 39000 ft 478 kts 18°
2026-05-08 21:23 -39.70392 -60.22182 39000 ft 478 kts 18°
2026-05-08 21:23 -39.64035 -60.19544 39000 ft 478 kts 18°
2026-05-08 21:24 -39.57695 -60.16919 39000 ft 478 kts 18°
2026-05-08 21:24 -39.52219 -60.14655 39000 ft 478 kts 18°
2026-05-08 21:25 -39.45877 -60.12038 39000 ft 478 kts 18°
2026-05-08 21:25 -39.39532 -60.09424 39000 ft 478 kts 18°
2026-05-08 21:26 -39.33189 -60.06817 39000 ft 478 kts 18°
2026-05-08 21:26 -39.26881 -60.04229 39000 ft 478 kts 18°
2026-05-08 21:27 -39.20543 -60.01633 39000 ft 478 kts 18°
2026-05-08 21:27 -39.14205 -59.99042 39000 ft 478 kts 18°
2026-05-08 21:28 -39.07861 -59.96454 39000 ft 478 kts 18°
2026-05-08 21:28 -39.01518 -59.93871 39000 ft 478 kts 17°
2026-05-08 21:29 -38.95217 -59.91309 39000 ft 477 kts 17°
2026-05-08 21:29 -38.89836 -59.89126 39000 ft 477 kts 17°
2026-05-08 21:30 -38.84947 -59.87146 39000 ft 477 kts 17°
2026-05-08 21:30 -38.78604 -59.84579 39000 ft 478 kts 17°
2026-05-08 21:31 -38.72253 -59.82016 39000 ft 479 kts 17°
2026-05-08 21:31 -38.65876 -59.79445 39000 ft 481 kts 17°
2026-05-08 21:32 -38.59496 -59.76869 39000 ft 481 kts 17°
2026-05-08 21:32 -38.53146 -59.74314 39000 ft 481 kts 17°
2026-05-08 21:33 -38.46716 -59.71742 39000 ft 481 kts 17°
2026-05-08 21:33 -38.40365 -59.69197 39000 ft 480 kts 18°
2026-05-08 21:34 -38.34001 -59.66566 39000 ft 481 kts 18°
2026-05-08 21:34 -38.27630 -59.63934 39000 ft 482 kts 18°
2026-05-08 21:35 -38.21296 -59.61325 39000 ft 482 kts 18°
2026-05-08 21:35 -38.14866 -59.58682 39000 ft 481 kts 18°
2026-05-08 21:36 -38.08540 -59.56088 39000 ft 481 kts 18°
2026-05-08 21:36 -38.02125 -59.53461 39000 ft 481 kts 18°
2026-05-08 21:37 -37.95789 -59.50872 39000 ft 481 kts 18°
2026-05-08 21:37 -37.89397 -59.48264 39000 ft 482 kts 18°
2026-05-08 21:38 -37.84086 -59.46101 39000 ft 482 kts 18°